Fort Lewis, WA
on Wednesday, January 30, 2013

Wednesday
Previous Day Next Day
Daily Summary
 ActualAverage (KOLM)Record (KOLM)
Temperature
Mean Temperature °F 40°F  
Max Temperature 48°F 48°F 56°F (1960)
Min Temperature 44°F 33°F 6°F (1950)
Degree Days
Heating Degree Days 19 25  
Month to date heating degree days 760  
Since 1 July heating degree days 3030  
Cooling Degree Days 0 0  
Month to date cooling degree days 0  
Year to date cooling degree days 0  
Moisture
Dew Point 46°F   
Average Humidity 97    
Maximum Humidity 100    
Minimum Humidity 93    
Precipitation
Precipitation 0.30 in 0.24 in 1.08 in (1952)
Month to date precipitation 7.61  
Year to date precipitation 7.61  
Wind
Wind Speed 8 mph   
Max Wind Speed 13 mph   
Max Gust Speed mph   
Visibility 10 miles   
Events Rain   

Key: T is trace of precipitation, MM is missing value
Source: NWS Daily Summary
Time(PST)TemperatureDew PointHumidity Pressure Visibility Wind DirectionWind SpeedGust SpeedPrecipitationEvents Conditions
12:08 AM 44.6°F 42.8°F 93% 30.33 in 10.0 miles South 12.7 mph - N/A   Overcast
12:58 AM 44.4°F 43.2°F 95% 30.35 in 10.0 miles South 10.4 mph - 0.01 in   Overcast
1:08 AM 44.6°F 42.8°F 93% 30.34 in 10.0 miles South 9.2 mph - N/A   Overcast
1:28 AM 44.6°F 42.8°F 93% 30.34 in 10.0 miles South 9.2 mph - N/A   Overcast
1:58 AM 44.8°F 43.7°F 96% 30.36 in 10.0 miles South 9.2 mph - N/A   Overcast
2:58 AM 45.5°F 44.1°F 95% 30.35 in 10.0 miles South 5.8 mph - N/A   Overcast
3:18 AM 46.4°F 44.6°F 93% 30.34 in 10.0 miles South 5.8 mph - N/A   Overcast
3:58 AM 45.7°F 44.4°F 95% 30.36 in 10.0 miles South 5.8 mph - N/A   Overcast
4:58 AM 46.0°F 44.6°F 95% 30.36 in 10.0 miles South 8.1 mph - N/A   Overcast
5:34 AM 46.4°F 44.6°F 93% 30.33 in 10.0 miles South 11.5 mph - N/A   Light Drizzle
5:58 AM 46.0°F 45.0°F 96% 30.37 in 10.0 miles South 6.9 mph - 0.01 in   Light Drizzle
6:08 AM 46.4°F 44.6°F 93% 30.34 in 10.0 miles South 8.1 mph - N/A Rain Light Rain
6:13 AM 46.4°F 44.6°F 93% 30.35 in 8.0 miles South 6.9 mph - N/A Rain Light Rain
6:43 AM 46.4°F 46.4°F 100% 30.35 in 10.0 miles South 8.1 mph - N/A Rain Light Rain
6:58 AM 45.9°F 45.5°F 99% 30.37 in 10.0 miles South 9.2 mph - 0.08 in   Light Drizzle
7:43 AM 46.4°F 44.6°F 93% 30.35 in 10.0 miles South 8.1 mph - N/A   Light Drizzle
7:53 AM 46.4°F 44.6°F 93% 30.36 in 10.0 miles South 6.9 mph - N/A   Light Drizzle
7:58 AM 45.5°F 45.3°F 99% 30.38 in 10.0 miles South 9.2 mph - 0.03 in   Light Drizzle
8:08 AM 46.4°F 44.6°F 93% 30.36 in 10.0 miles South 9.2 mph - N/A   Light Drizzle
8:58 AM 45.7°F 45.5°F 99% 30.39 in 10.0 miles South 6.9 mph - 0.05 in   Light Drizzle
9:03 AM 46.4°F 44.6°F 93% 30.37 in 10.0 miles South 8.1 mph - N/A   Light Drizzle
9:08 AM 46.4°F 46.4°F 100% 30.37 in 10.0 miles South 8.1 mph - N/A   Overcast
9:10 AM 46.4°F 46.4°F 100% 30.37 in 10.0 miles South 8.1 mph - N/A   Light Drizzle
9:25 AM 46.4°F 46.4°F 100% 30.37 in 9.0 miles South 8.1 mph - N/A   Light Drizzle
9:45 AM 46.4°F 46.4°F 100% 30.37 in 10.0 miles South 8.1 mph - N/A   Light Drizzle
9:58 AM 46.0°F 45.9°F 99% 30.40 in 9.0 miles South 8.1 mph - 0.05 in Rain Light Rain
10:43 AM 46.4°F 46.4°F 100% 30.38 in 10.0 miles South 6.9 mph - N/A   Light Drizzle
10:58 AM 46.6°F 46.4°F 99% 30.40 in 10.0 miles South 9.2 mph - 0.05 in   Light Drizzle
11:13 AM 46.4°F 46.4°F 100% 30.39 in 10.0 miles South 8.1 mph - N/A   Overcast
11:53 AM 46.4°F 46.4°F 100% 30.38 in 10.0 miles South 6.9 mph - N/A   Overcast
11:58 AM 47.1°F 46.9°F 99% 30.40 in 10.0 miles South 5.8 mph - 0.01 in   Overcast
12:23 PM 46.4°F 46.4°F 100% 30.38 in 10.0 miles South 6.9 mph - N/A   Overcast
12:28 PM 48.2°F 46.4°F 93% 30.38 in 10.0 miles South 5.8 mph - N/A   Overcast
12:43 PM 48.2°F 46.4°F 93% 30.38 in 10.0 miles South 5.8 mph - N/A   Overcast
12:48 PM 48.2°F 46.4°F 93% 30.38 in 10.0 miles South 5.8 mph - N/A   Overcast
12:58 PM 47.7°F 47.3°F 99% 30.40 in 10.0 miles South 6.9 mph - N/A   Overcast
1:58 PM 48.4°F 47.8°F 98% 30.39 in 10.0 miles South 6.9 mph - N/A   Overcast
2:53 PM 48.2°F 48.2°F 100% 30.36 in 10.0 miles SSE 5.8 mph - N/A   Overcast
2:58 PM 48.7°F 47.8°F 97% 30.38 in 10.0 miles SSE 8.1 mph - 0.01 in   Overcast
3:03 PM 48.2°F 48.2°F 100% 30.36 in 10.0 miles SSE 5.8 mph - N/A   Overcast
3:38 PM 48.2°F 48.2°F 100% 30.37 in 10.0 miles South 6.9 mph - N/A   Overcast
3:48 PM 48.2°F 48.2°F 100% 30.37 in 10.0 miles South 5.8 mph - N/A   Overcast
3:53 PM 48.2°F 48.2°F 100% 30.37 in 10.0 miles South 5.8 mph - N/A   Overcast
3:58 PM 48.7°F 47.5°F 95% 30.39 in 10.0 miles South 3.5 mph - N/A   Overcast
4:03 PM 48.2°F 48.2°F 100% 30.37 in 10.0 miles South 3.5 mph - N/A   Overcast
4:08 PM 48.2°F 48.2°F 100% 30.36 in 10.0 miles South 4.6 mph - N/A   Overcast
4:58 PM 48.6°F 47.1°F 95% 30.38 in 10.0 miles South 5.8 mph - N/A   Overcast
5:03 PM 48.2°F 46.4°F 93% 30.37 in 10.0 miles South 5.8 mph - N/A   Overcast
5:08 PM 48.2°F 46.4°F 93% 30.37 in 10.0 miles South 4.6 mph - N/A   Overcast
5:23 PM 48.2°F 48.2°F 100% 30.36 in 10.0 miles Variable 2.3 mph - N/A   Overcast
5:58 PM 47.8°F 47.3°F 98% 30.39 in 10.0 miles SE 4.6 mph - N/A   Overcast
6:58 PM 47.3°F 46.9°F 99% 30.38 in 10.0 miles SE 4.6 mph - N/A   Overcast
7:43 PM 48.2°F 46.4°F 93% 30.36 in 10.0 miles SSE 5.8 mph - N/A   Overcast
7:58 PM 47.3°F 46.6°F 97% 30.39 in 10.0 miles SSE 4.6 mph - N/A   Overcast
8:58 PM 47.1°F 46.4°F 97% 30.39 in 10.0 miles SSE 3.5 mph - N/A   Overcast
9:58 PM 46.8°F 46.2°F 98% 30.39 in 10.0 miles SSE 4.6 mph - N/A   Overcast
10:03 PM 46.4°F 46.4°F 100% 30.37 in 10.0 miles SSE 3.5 mph - N/A   Overcast
10:13 PM 46.4°F 46.4°F 100% 30.37 in 10.0 miles SSE 4.6 mph - N/A   Overcast
10:58 PM 46.8°F 46.2°F 98% 30.39 in 10.0 miles SSE 4.6 mph - N/A   Overcast
11:58 PM 46.9°F 46.2°F 97% 30.40 in 10.0 miles SSE 3.5 mph - N/A   Overcast
Moon Phase
Jan. 30 Feb. 03 Feb. 10 Feb. 17 Feb. 25
Sunrise:07:37 AM (PST) Moon Rise:09:35 PM (PST)1/30
Sunset:05:10 PM (PST) Moon Set:08:50 AM (PST)1/30

Copyright © 2014 The Weather Underground, Inc.